Location: Plymouth
(43.7570°N, 71.6890°W)
Time: 21:49:06
(UTC-05:00)

Daily predictions for brighter satellites

Satellite Brightness Start Highest point End
(mag) Time Altitude Azimuth Time Altitude Azimuth Time Altitude Azimuth
Meteor 1-5 Rocket 4.2 16:32:51 10° N 16:38:12 57° ENE 16:43:40 10° SSE
Okean 3 3.5 16:37:56 10° S 16:42:13 88° E 16:46:31 10° N
Cosmos 2082 Rocket 3.6 16:40:44 10° N 16:44:28 18° NE 16:48:12 10° E
SL-27 R/B 2.9 16:41:17 10° N 16:44:49 41° ENE 16:48:17 10° SE
Cosmos 1833 Rocket 4.2 16:42:46 10° N 16:46:09 16° NE 16:49:31 10° E
Okean 1 Rocket 4.4 16:50:05 10° NNW 16:54:13 44° W 16:58:20 10° SSW
Cosmos 1484 Rocket 4.0 16:52:20 10° ESE 16:55:04 19° ENE 16:57:47 10° NNE
Cosmos 1633 4.2 16:53:44 10° NNW 16:57:05 37° W 17:00:24 10° SSW
Cosmos 1544 Rocket 3.7 16:54:35 10° N 16:58:58 52° E 17:03:19 10° SSE
COSMO-SKYMED 1 3.9 16:57:25 10° NE 17:00:39 20° E 17:03:51 10° SE
Cosmos 1975 Rocket 3.2 16:59:37 10° SSW 17:03:56 78° W 17:08:17 10° N
Cosmos 1500 4.3 17:02:04 10° NNE 17:05:09 23° ENE 17:08:13 10° SE
Cosmos 2263 Rocket 4.0 17:02:20 10° WSW 17:06:57 26° NW 17:11:38 10° N
USA 116 4.5 17:01:44 10° NNE 17:07:09 72° ESE 17:12:21 10° S
BREEZE-M DEB (TANK) 4.2 17:00:04 10° W 17:09:20 47° NNW 17:12:59 14° NE
PAYLOAD A 4.3 17:06:38 10° S 17:11:24 68° WSW 17:16:23 10° NNW
GEOS 3 Rocket 4.0 17:14:12 10° ESE 17:18:56 40° NE 17:23:42 10° NNW
Cosmos 1536 Rocket 3.8 17:16:13 10° SSE 17:20:32 50° E 17:24:52 10° NNE
SJ-7 4.5 17:18:20 10° SSE 17:22:34 89° WSW 17:26:51 10° NNW
USA 234 3.4 17:16:31 12° NE 17:22:41 74° NW 17:29:10 10° WSW
Tiangong 1 3.2 17:22:48 10° S 17:24:29 14° SSE 17:25:29 12° SE
SPOT 3 Rocket 3.8 17:20:16 10° S 17:25:27 74° WSW 17:30:39 10° NNW
Okean 1 3.5 17:23:43 10° S 17:27:38 51° E 17:31:36 10° NNE
YAOGAN 1 2.8 17:24:09 10° S 17:28:28 73° WSW 17:32:49 10° NNW
Meteor 1-18 Rocket 4.2 17:23:07 10° S 17:28:44 74° E 17:34:29 10° NNE
Cosmos 1844 Rocket 3.1 17:26:23 10° SW 17:31:55 63° WNW 17:37:31 10° NNE
Cosmos 1812 2.6 17:28:08 10° S 17:32:00 83° E 17:35:52 10° N
CZ-4 R/B 4.5 17:28:55 10° SSE 17:33:04 86° W 17:37:15 10° NNW
BREEZE M DEB (TANK) 3.7 17:24:56 10° SW 17:33:37 38° SSE 17:35:33 23° E
COSMOS 2487 2.9 17:32:42 10° N 17:36:06 37° ENE 17:38:37 16° SE
CZ-3A R/B 4.5 17:19:16 10° WSW 17:37:30 51° NNW 17:41:45 17° NE
EP 2 4.1 17:35:17 10° SSW 17:37:52 75° SE 17:38:30 46° NE
Cosmos 921 Rocket 4.2 17:34:36 10° SSE 17:37:43 23° ESE 17:37:43 23° ESE
USA 32 4.5 17:33:28 10° SSW 17:38:38 64° W 17:43:50 10° N
NOSS 3-3 (A) 4.0 17:33:08 10° SSW 17:39:13 65° ESE 17:44:01 19° NE
NOSS 3-3 (C) 4.0 17:33:14 10° SSW 17:39:20 64° ESE 17:44:05 19° NE
FALCON 9 R/B 4.4 17:12:54 10° WSW 17:40:06 49° S 17:46:24 16° ESE
ISS -2.3 17:37:56 10° W 17:41:03 38° NNW 17:42:12 28° NNE
Cosmos 1346 Rocket 2.9 17:39:52 10° S 17:43:38 49° E 17:45:21 28° NE
ASTRO F (AKARI) 4.4 17:43:38 16° N 17:46:00 71° WNW 17:49:07 10° SSW
IDEFIX/ARIANE 42P 3.5 17:41:01 10° S 17:46:04 51° W 17:51:08 10° NNW
Cosmos 494 Rocket 4.4 17:41:33 10° NNW 17:46:45 67° WSW 17:51:57 10° S
ATLAS 2AS CENTAUR R/B 3.4 17:38:51 10° NW 17:46:50 66° WSW 17:54:16 10° SSE
Cosmos 1455 Rocket 3.7 17:44:04 10° NNW 17:48:23 58° W 17:52:44 10° S
Cosmos 1844 4.1 17:43:10 10° SW 17:48:40 62° WNW 17:54:04 11° NNE
SKYMED 2 3.5 17:45:30 15° NNE 17:49:00 64° ESE 17:53:17 10° S
Cosmos 2366 rocket 4.4 17:44:10 10° NNW 17:50:28 67° W 17:56:42 10° S
Cosmos 2297 4.0 17:45:38 10° S 17:50:54 42° ESE 17:53:06 29° ENE
Okean 1-7 Rocket 4.0 17:49:39 10° SSE 17:53:54 41° E 17:54:42 38° ENE
CZ-3B DEB 2.5 17:52:06 10° WSW 17:56:08 76° NW 18:02:20 23° NE
MSX 4.3 17:53:04 10° S 17:58:44 62° W 18:04:27 10° NNW
Cosmos 1934 Rocket 4.3 17:54:17 10° N 18:00:03 39° ENE 18:05:51 10° SE
Cosmos 1809 Rocket 4.4 17:55:47 10° N 18:01:59 87° E 18:08:06 10° S
CZ-4 R/B 4.2 18:00:01 10° SW 18:03:11 21° W 18:06:23 10° NW
Abrixas 3.6 18:01:30 10° WNW 18:03:36 36° NNW 18:03:36 36° NNW
Cosmos 2278 Rocket 2.3 17:59:29 10° SSW 18:05:08 74° WNW 18:09:21 19° NNE
Timation 2 Rocket 4.1 18:03:05 10° NNW 18:09:55 77° ENE 18:16:49 10° SSE
BREEZE-M R/B 3.9 18:00:21 10° WSW 18:10:29 89° SE 18:12:19 44° ENE
Cosmos 1975 3.9 18:06:50 10° NNW 18:10:44 46° W 18:14:37 10° SSW
Meteor 1-19 Rocket 4.2 18:09:24 10° S 18:15:06 64° E 18:18:27 26° NNE
Cosmos 2239 Rocket 4.4 18:09:37 10° N 18:15:50 66° E 18:21:56 10° SSE
Genesis I 3.7 18:18:16 10° NW 18:22:08 57° WSW 18:23:19 38° S
Cosmos 1821 Rocket 3.8 18:19:16 10° N 18:25:24 74° E 18:31:29 10° SSE
NOAA 12 4.0 18:20:38 10° SSE 18:25:55 90° WSW 18:31:14 10° NNW
Cosmos 2082 Rocket 2.1 18:23:39 10° NNW 18:29:21 88° WSW 18:33:41 18° SSE
TIMED 4.4 18:25:44 10° SSW 18:30:00 83° WSW 18:30:00 83° WSW
SL-8 R/B 3.6 18:25:54 10° WSW 18:30:41 77° NNW 18:30:50 76° N
Cosmos 1833 Rocket 2.5 18:25:19 10° NNW 18:31:00 82° ENE 18:33:05 41° SSE
Meteor 1-13 Rocket 4.3 18:26:47 10° SSW 18:32:26 76° W 18:37:11 16° N
METEOR-M 4.0 18:28:42 10° SSE 18:34:02 90° S 18:39:26 10° NNW
COSMO-SKYMED 1 3.8 18:34:05 17° N 18:36:57 39° WNW 18:40:59 10° SW
Meteor 1-23 Rocket 4.4 18:38:47 10° S 18:43:21 56° SSE 18:43:21 56° SSE
Meteor 1-28 Rocket 4.5 18:45:29 39° WSW 18:45:29 39° WSW 18:48:20 10° SSW
Timation 1 Rocket 4.3 18:48:55 10° SSW 18:54:52 77° WNW 18:55:27 70° NNW
Meteor 2-4 Rocket 3.9 18:53:59 10° SSW 18:58:30 61° SW 18:58:30 61° SW
USA 234 4.3 19:03:52 32° N 19:05:05 34° NNW 19:10:50 10° WNW
ATLAS 3B CENTAUR R/B 4.3 19:01:50 10° WSW 19:13:36 28° SSW 19:15:57 24° S
BREEZE M DEB (TANK) 3.9 19:17:11 10° WNW 19:21:46 83° SSW 19:21:54 82° S
NOSS 3-4 (A) 3.8 19:15:36 10° NW 19:21:59 75° WNW 19:21:59 75° WNW
NOSS 3-4 (C) 3.8 19:15:43 10° NW 19:22:03 74° WNW 19:22:03 74° WNW
CZ-3B DEB 4.4 20:26:10 10° WNW 20:30:57 41° NNW 20:30:57 41° NNW
